Location: Avoca
(45.7167°N, 74.7000°W)
Time: 20:40:52
(UTC+00:00)

ISS - Pass Details

Date: 06 December 2022
Orbit: 412 x 423 km, 51.6° (Epoch: 07 February)

Event Time Altitude Azimuth Distance (km) Brightness Sun altitude
Rises 22:05:33 0° 296° (WNW) 2,349 0.7 -8.7°
Reaches altitude 10° 22:07:40 10° 292° (WNW) 1,485 -0.3 -9.0°
Maximum altitude 22:10:55 53° 214° (SW) 512 -3.0 -9.5°
Drops below altitude 10° 22:14:10 10° 137° (SE) 1,484 -1.2 -10.0°
Enters shadow 22:17:06 -3° 131° (SE) 2,686 0.1 -10.5°
